Regional Weather Roundup
Issued by NWS

Home | Current Version | Previous Version | Graphics & Text | Print | Product List | Glossary Off
Versions: 1 2 3 4 5 6 7 8 9 10 11 12 13 14 15 16 17 18 19 20 21 22 23 24 25 26 27 28 29 30 31 32 33 34 35 36 37 38 39 40 41 42 43 44 45 46 47 48 49 50

000
ASUS43 KDTX 170110
RWRMI
MICHIGAN HOURLY REGIONAL WEATHER ROUNDUP
NATIONAL WEATHER SERVICE DETROIT/PONTIAC MI
900 PM EDT WED APR 16 2014

NOTE: "FAIR" INDICATES FEW OR NO CLOUDS BELOW 12,000 FEET WITH NO
SIGNIFICANT WEATHER AND/OR OBSTRUCTION TO VISIBILITY.

MIZ047>049-052>055-059>063-066>070-074>076-081>083-170200-
SOUTHEAST LOWER MICHIGAN

CITY           SKY/WX    TMP DP  RH WIND       PRES   REMARKS
ADRIAN         CLEAR     36  26  67 E14       30.36R WCI  27
ALMA           PTCLDY    40  21  48 SE10      30.33R WCI  33
ANN ARBOR      PTCLDY    35  22  58 SE8       30.37R WCI  29
BAD AXE        PTCLDY    33  24  68 SE6       30.41S WCI  28
CARO           PTCLDY    37  21  52 SE10      30.39R WCI  30
DETROIT CITY   PTCLDY    37  19  48 E12       30.42R WCI  29
DETROIT        MOCLDY    36  20  52 E9        30.40R WCI  29
FLINT          PTCLDY    37  18  46 SE10      30.38S WCI  30
GROSSE ILE     PTCLDY    34  21  60 E12       30.39R WCI  25
HILLSDALE      CLEAR     38  26  63 E14       30.30S WCI  29
HOWELL         PTCLDY    35  20  53 SE9       30.35R WCI  28

CITY           SKY/WX    TMP DP  RH WIND       PRES   REMARKS
JACKSON        CLEAR     37  25  61 SE16      30.32S WCI  28
LAMBERTVILLE   CLEAR     36  28  75 E10G16    30.38R WCI  28
LANSING        CLEAR     39  23  52 SE10      30.33R WCI  32
LAPEER         FAIR      33  17  52 E3        30.40R
MASON          CLEAR     37  25  62 SE8       30.33R WCI  31
MONROE         PTCLDY    36  25  64 E10G16    30.38R WCI  28
MT. CLEMENS    PTCLDY    35  20  55 E12       30.41R WCI  27
PONTIAC        MOCLDY    35  16  45 E9        30.36S WCI  28
PORT HOPE        N/A     36  25  64 SE14      30.41S WCI  27
PORT HURON     PTCLDY    34  18  51 E6        30.44R WCI  29
TRI CITIES     PTCLDY    41  22  46 SE13      30.36R
TROY           PTCLDY    36  19  49 E9        30.41R WCI  29
SAGINAW HB     PTCLDY    37  27  65 SE9       30.37R WCI  31
YPSILANTI      PTCLDY    38  22  52 E12       30.39R WCI  30
$$
MIZ043>046-050>051-056>058-064>065-071>073-077>080-170200-
SOUTHWEST LOWER MICHIGAN

CITY           SKY/WX    TMP DP  RH WIND       PRES   REMARKS
BATTLE CREEK   CLEAR     41  22  46 SE10      30.28S
BENTON HARBOR  CLEAR     43  21  41 SE14      30.22R
BIG RAPIDS     PTCLDY    40  22  47 SE13G18   30.27R WCI  33
COLDWATER      CLEAR     40  24  53 SE8       30.28S WCI  34
FREMONT        FAIR      42  19  40 SE10      30.25R
HOLLAND        PTCLDY    44  22  41 SE12      30.25R
GRAND RAPIDS   CLOUDY    43  21  41 SE13      30.27R
IONIA          FAIR      39  22  50 SE12      30.29R WCI  32
KALAMAZOO      CLEAR     42  22  44 SE8       30.27R
LUDINGTON      CLOUDY    42  23  47 SE6       30.23S
MARSHALL       CLEAR     38  23  53 SE9       30.29S WCI  32
MOUNT PLEASANT MOCLDY    40  21  46 E9        30.32R WCI  34
MUSKEGON       MOCLDY    45  20  36 SE14      30.24R
SOUTH HAVEN    CLEAR     44  20  39 SE10G17   30.23S
$$
MIZ016>042-170200-
NORTHERN LOWER MICHIGAN

CITY           SKY/WX    TMP DP  RH WIND       PRES   REMARKS
ALPENA         CLOUDY    32  21  64 SE12      30.41R WCI  23
BEAVER ISLAND  LGT SNOW  29  28  93 E14       30.32F WCI  19
BELLAIRE       CLOUDY    37  26  66 E3        30.32S
CADILLAC       CLOUDY    37  22  56 E12G17    30.26R WCI  29
CHARLEVOIX     CLOUDY    33  32  97 E7        30.37R FOG     WCI  27
FRANKFORT      CLOUDY    37  28  70 E8        30.25F WCI  30
GAYLORD        CLOUDY    33  23  66 SE9       30.32R WCI  25
GRAYLING       CLOUDY    35  21  57 E10       30.33R WCI  27
HARBOR SPRINGS LGT SNOW  32  31  95 CALM      30.35R
HOUGHTON LAKE  CLOUDY    36  19  50 SE9       30.33R WCI  29
MANISTEE       CLOUDY    41  19  42 E9        30.25S
OSCODA         MOCLDY    35  22  59 SE12      30.40S WCI  26
PELLSTON       LGT SNOW  32  28  85 SE3       30.36R FOG
ROGERS CITY    CLOUDY    33  25  72 SE12      30.40R WCI  24
TRAVERSE CITY  CLOUDY    37  26  64 E8        30.28F WCI  31
$$
MIZ007>008-015-170200-
EASTERN UPPER MICHIGAN

CITY           SKY/WX    TMP DP  RH WIND       PRES   REMARKS
KINROSS        CLOUDY    30  25  80 E13       30.38S WCI  20
MACKINAC ISLAN LGT SNOW  31  28  91 E10G20    30.36S WCI  22
NEWBERRY       LGT SNOW  28  26  94 SE10      30.34S WCI  18
S. S. MARIE    CLOUDY    31  21  66 SE8       30.39R WCI  23
MUNISING         N/A     31  25  78 CALM      30.30R
$$
MIZ004>006-011>014-085-170200-
CENTRAL UPPER MICHIGAN

CITY           SKY/WX    TMP DP  RH WIND       PRES   REMARKS
MANISTIQUE     LGT SNOW  29  27  94 E14G23    30.29F WCI  18
ESCANABA       CLOUDY    30  27  86 E17       30.24F WCI  18
MENOMINEE      CLOUDY    32  28  86 E14       30.21S WCI  22
SAWYER-GWINN   LGT SNOW  28  27  93 SE9       30.24R WCI  20
$$
MIZ001>003-009>011-084-170200-
WESTERN UPPER MICHIGAN

CITY           SKY/WX    TMP DP  RH WIND       PRES   REMARKS
IRON MOUNTAIN  CLOUDY    30  26  85 E13G20    30.17F WCI  20
HOUGHTON       LGT SNOW  28  25  88 E16G23    30.24S VSB 3/4 WCI  16
COPPER HARBOR    N/A     29  26  89 SE5       30.31S WCI  24
IRONWOOD       CLOUDY    28  25  86 NE9       30.10S WCI  20
$$

ABBREVIATIONS USED IN REMARKS
   TC - TEMPERATURE IN CELSIUS
  WCI - WIND CHILL INDEX
   HX - HEAT INDEX
  VSB - VISIBILITY




USA.gov is the U.S. government's official web portal to all federal, state and local government web resources and services.